    Orbital elements:
    2008 TC3                                                 Earth MOID = 0.0000 AU
    Epoch 2008 Oct. 6.0 TT = JDT 2454745.5                  MPC
    M 328.47767              (2000.0)            P               Q
    n   0.68819248     Peri.  233.95125     +0.37341111     -0.92761294
    a   1.2705627      Node   194.13267     +0.86364709     +0.35152475
    e   0.2852182      Incl.    2.32799     +0.33864118     +0.12635100
    P   1.43           H   30.4           G   0.15           U   5
    Residuals in seconds of arc
    081006 G96  0.4+  0.1-    081006 620  0.3+  0.1+    081006 J47  0.5+  0.0-
    081006 G96  0.0-  0.2-    081006 213  0.5-  0.5+    081006 J95  0.4-  0.5-
    081006 G96  0.4-  0.5-    081006 J75  1.1+  0.4+    081006 J47  0.5-  0.1-
    081006 G96  0.0+  0.2-    081006 473  0.2-  0.0+    081006 213  0.3-  0.1-
    081006 G96  0.0+  0.2-    081006 046  0.6+  0.4-    081006 J47  0.0+  0.0-
    081006 G96  0.1-  0.2-    081006 046  0.3+  0.1-    081006 J47  0.0+  0.0+
    081006 854  1.0-  0.9+    081006 620  0.8+  0.0+    081006 213  0.2-  0.0-
    081006 G96  0.0-  0.2-    081006 046  0.3+  0.0+    081006 J75  0.8+  0.0-
    081006 854  0.0-  0.3-    081006 J75  0.3+  0.3+    081006 J95  0.5-  0.2-
    081006 854  0.2-  1.0+    081006 046  0.9+  0.3-    081006 J47  0.4+  0.5+
    081006 G96  0.1-  0.0-    081006 473  0.1-  0.2-    081006 952  0.4+  1.3-
    081006 G96  0.2+  0.1-    081006 213  0.1-  0.2-    081006 213  0.4-  0.3-
    081006 G96  0.4+  0.2-    081006 620  0.8+  0.0+    081006 J47  0.2-  0.3+
    081006 G96  0.3+  0.2-    081006 143  0.6+  0.2-    081006 J47  0.1+  0.3+
    081006 G96  0.4+  0.2-    081006 J75  0.9+  0.2+    081006 J95  0.5-  0.3-
    081006 D90  0.0+  0.3-    081006 620  0.2-  0.1-    081006 952  0.0+  1.3-
    081006 D90  0.0-  0.1+    081006 213  0.1-  0.1-    081006 473  0.2-  0.2-
    081006 D90  0.8-  0.5+    081006 198  0.1+  0.1+    081006 952  0.4+  0.8-
    081006 E12  0.1-  0.5-    081006 198  0.1+  0.1+    081006 A77  0.6+  0.5+
    081006 E12  0.0-  0.3-    081006 198  0.8-  0.0+    081006 A77  0.1+  0.2+
    081006 E12  0.0+  0.2-    081006 143  0.4+  0.1-    081006 143  0.1+  0.5-
    081006 E12  0.4+  0.5+    081006 213  0.2+  0.1-    081006 A77  0.9+  0.4+
    081006 E12  1.0+  0.0-    081006 198  0.7+  0.0-    081006 J95  0.5-  0.3-
    081006 E12  0.1-  0.8-    081006 620  0.0+  0.1+    081006 473  0.0-  0.1-
    081006 E12  0.7-  0.5-    081006 213  0.4-  0.9-    081006 A77  0.3-  0.2+
    081006 E12  0.1+  0.6-    081006 J75  0.5+  0.2+    081006 A77  0.3+  0.3+
    081006 114  0.5+  0.4+    081006 143  0.2+  0.0-    081006 A77  0.1-  0.4+
    081006 114  0.0-  0.3+    081006 213  0.0-  0.0+    081006 143  0.2+  0.5-
    081006 114  0.1+  0.8+    081006 213  0.1-  0.4-    081006 213  0.5-  0.7-
    081006 114  0.5+  0.7+    081006 J47  0.2-  0.3+    081006 A77  0.4-  0.4+
    081006 114  0.8-  0.4+    081006 620  0.2-  0.0+    081006 A77  0.5-  0.3+
    081006 114  0.5+  0.4+    081006 J47  0.2-  0.3+    081006 473  0.2+  0.2-
    081006 114  0.5+  0.6+    081006 235  1.0+  0.1+    081006 A77  0.9+  0.3+
    081006 114  0.5+  0.3+    081006 J75  0.0+  0.1+    081006 A77  0.3-  0.5+
    081006 114  0.6+  0.6+    081006 J47  0.1+  0.5+    081006 A77  0.1+  0.3+
    081006 106  0.0-  0.6-    081006 213  0.0+  0.1+    081006 143  0.3+  0.3-
    081006 106  1.8-  0.1+    081006 J47  0.2+  0.6+    081006 A77  0.2-  0.5+
    081006 114  0.3+  0.8+    081006 143  0.3+  0.2-    081006 A77  0.7-  0.2+
    081006 106  1.8-  1.3-    081006 J47  0.2-  0.3+    081006 J75  0.4+  0.1+
    081006 114  0.3+  0.4+    081006 J47  0.1+  0.3+    081006 J75  0.1-  0.1-
    081006 114  0.5+  0.3+    081006 J47  0.2+  0.0+    081006 473  0.1-  0.4-
    081006 114  0.7+  0.4+    081006 143  0.3+  0.3-    081006 213  0.6-  0.2-
    081006 114  0.0-  0.2+    081006 J47  0.3+  0.2+    081006 J47  0.1-  0.0+
    081006 143  0.4-  0.1-    081006 235  1.2+  0.2-    081006 A86  1.8+  0.5+
    081006 143  0.0+  0.2-    081006 J47  0.7-  0.1-    081006 A86  1.7+  0.2+
    081006 143  0.2+  0.3-    081006 J47  0.0-  0.0+    081006 J47  0.4-  0.2+
    081006 143  0.2-  0.2-    081006 J47  0.2+  0.0-    081006 213  1.0-  0.2-
    081006 595  0.3-  0.3+    081006 143  0.1+  0.1-    081006 J47  0.2+  0.1-
    081006 143  0.1-  0.2-    081006 J75  0.1+  0.2+    081006 J47  0.1+  0.1+
    081006 620  0.0-  0.3+    081006 J47  0.1+  0.1+    081006 J47  0.2+  0.2+
    081006 A77 (4.6-  0.6+)   081006 J47  0.1+  0.3+    081006 473  0.2+  0.3-
    081006 A77  2.2-  0.2-    081006 204  0.3-  0.4-    081006 J47  0.2+  0.2+
    081006 595  0.1+  0.9+    081006 J47  0.3+  0.3+    081006 952  0.5-  0.3-
    081006 595  0.3-  0.5+    081006 204  0.0-  0.7-    081006 143  0.2+  0.1+
    081006 143  0.1-  0.1-    081006 204  0.2-  0.5-    081006 J47  0.1-  0.1+
    081006 A77  2.1-  0.2-    081006 J47  0.1+  0.1-    081006 952  0.0-  0.3+
    081006 620  0.1+  0.0-    081006 J47  0.4+  0.1+    081006 J47  0.2-  0.0-
    081006 620  0.6+  0.1-    081006 204  0.2-  0.3-    081006 213  0.2-  0.1+
    081006 620  1.0-  0.2-    081006 J47  0.0-  0.2-    081006 J47  0.0-  0.0+
    081006 143  0.1+  0.1-    081006 204  0.5-  0.2-    081006 213  0.4-  0.4-
    081006 J95  0.2-  0.1-    081006 J75  0.0+  0.2+    081006 J47  0.0+  0.1+
    081006 J95  0.2-  0.3-    081006 J47  0.1-  0.1+    081006 473  0.3+  0.2-
    081006 J95  0.1+  0.1-    081006 J47  0.1-  0.2+    081006 143  0.5+  0.1-
    081006 143  0.1+  0.2-    081006 J47  0.0-  0.3+    081006 952  0.9-  0.1-
    081006 J95  0.1-  0.4-    081006 J47  0.0+  0.2+    081006 J47  0.2-  0.1+
    081006 204  0.2-  0.2-    081006 J53  0.1+  0.1-    081006 213  0.3-  0.2-
    081006 J95  0.2+  0.0-    081006 A77  0.9-  0.1+    081006 J47  0.2-  0.1-
    081006 204  0.1-  0.3-    081006 J47  0.1+  0.2+    081006 J47  0.1-  0.1-
    081006 204  0.1+  0.2-    081006 A77  1.4-  0.1-    081006 J47  0.3+  0.0+
    081006 204  0.1+  0.2-    081006 A77  0.5-  0.0+    081006 213  0.1-  0.3-
    081006 204  0.0-  0.0-    081006 A77  0.2-  0.3+    081006 213  0.1-  0.7-
    081006 204  0.3-  0.3-    081006 A77  0.9+  0.1+    081006 J47  0.6+  0.3+
    081006 620  0.5-  0.1-    081006 J47  0.1+  0.0+    081006 473  0.4+  0.4-
    081006 143  0.0+  0.2-    081006 A77  2.1+  0.2+    081006 J47  0.0-  0.0+
    081006 620  0.3+  0.1-    081006 A77  1.8+  0.7+    081006 J47  0.0+  0.1+
    081006 204  0.2-  0.2-    081006 J47  0.1-  0.0-    081006 J47  0.3+  0.1+
    081006 204  0.2-  0.2-    081006 A77  0.4+  0.3+    081006 213  0.6-  0.1-
    081006 204  0.5-  0.0-    081006 213  0.6-  0.2-    081006 J47  0.1+  0.0-
    081006 204  0.2-  0.2-    081006 J53  0.3-  0.1-    081006 213  1.1-  0.3-
    081006 204  0.4-  0.0-    081006 A77  0.2-  0.2+    081006 143  0.4-  0.1-
    081006 620  0.4+  0.0-    081006 J53  0.1+  0.1+    081006 J47  0.5-  0.1+
    081006 143  0.0+  0.2-    081006 J47  0.1-  0.2+    081006 143  0.1+  0.0-
    081006 473  0.2-  0.5+    081006 A77  1.6-  0.0-    081006 J47  0.1+  0.2+
    081006 046 (4.0+  1.5+)   081006 A77  0.9-  0.0+    081006 213  1.0-  0.0+
    081006 046  0.3-  0.3+    081006 A77  1.0-  0.1+    081006 J47  0.0-  0.0-
    081006 046  0.2+  0.4-    081006 213  0.4-  0.3-    081006 J47  0.5-  0.0+
    081006 046  0.1+  0.0+    081006 A77  0.0+  0.1+    081006 213  0.3-  0.5-
    081006 046  0.3+  0.1-    081006 A77  1.4+  0.3+    081006 J20 (4.0-  0.7-)
    081006 620  0.1+  0.0+    081006 213  0.3-  0.1-    081006 J47  0.3-  0.1-
    081006 473  0.2-  0.1+    081006 A77  1.4+  0.6+    081006 213  0.3-  0.1-
    081006 J75  0.2-  0.1+    081006 A77  0.8+  0.3+    081006 J47  0.1+  0.1+
    081006 620  0.2+  0.1-    081006 J47  0.0-  0.3+    081006 J20 (4.6-  1.0-)
    081006 046  0.3-  0.3-    081006 J47  0.3-  0.0+    081006 J47  0.2+  0.3+
    081006 046  0.4+  0.7-    081006 A77  0.8+  0.3+    081006 J20 (4.8-  1.0-)
    081006 143  0.1+  0.2-    081006 J51  0.8-  0.4-    081006 213  0.5-  0.4-
    081006 046  0.4+  0.3+    081006 A77  0.2-  0.2+    081006 J47  0.1-  0.1+
    081006 046  0.2+  0.2+    081006 J51  0.0+  0.0-    081006 J47  0.3+  0.2+
    081006 J75  0.6+  0.4+    081006 J47  0.1-  0.3+    081006 J47  0.3-  0.1-
    081006 046  0.4+  0.1+    081006 J51  0.4+  0.1-    081006 J47  0.2-  0.0+
    081006 046  0.3-  0.0+    081006 J47  0.1-  0.0+    081006 J47  0.1+  0.2+
    081006 046  0.1-  0.4+    081006 J47  0.1+  0.5+    081006 J47  0.3+  0.3+
    081006 473  0.1+  0.1+    081006 J47  0.2+  0.1+    081006 J47  0.0+  0.1-
    081006 213  0.6-  0.5+    081006 213  0.5-  0.1-
    
